STARLINK-32957, 63124

Orbit data source: Space-Track

STARLINK-32957, 63124 is a payload satellite owned by SpaceX/Seattle (US) in LEO that was launched on Thu, 27 Feb 2025 UTC via an FALCON 9 launch vehicle from the Air Force Eastern Test Range (AFETR). Payload-class satellites include a variety of spacecraft equipped with specific instruments for various scientific and technological missions. These include communications satellites like Starlink; space stations such as the ISS; scientific satellites like the Hubble; Earth observation satellites from companies like Planet Labs, Umbra, and HawkEye 360; GPS; miniature CubeSats for education and research; and military/defense satellites.

Loading next visibility...
Identifier
63124, 2025-039W
Orbit
LEO
Country
Flag of USUS
Related business
Manufacturer
SpaceX/Seattle
Mission
Operational Commercial Communications
Bus & Motor
STARLINK V2M, Unknown motor
Mass
730 kg wet, ~700 kg dry
Launch date (UTC)
2025-02-27 (2 years ago)
Launch vehicle
FALCON 9
Launch site
Air Force Eastern Test Range (AFETR)
Object type
Payload
Rocket body
Debris
Shape & HBR
Box + 2 Pan, 17.7 m
Radar Cross Section
33.884 m², Large (>1 m²)

Expand to show TLE details & history
Last TLE update: 1 day ago

TLE from 1 day ago
0 STARLINK-32957
1 63124U 25039W   26252.74400714  .00021802  00000-0  79919-3 0  9990
2 63124  43.0004  53.5039 0001075 253.9854 106.0880 15.27590550 86212
Epoch: 2026-09-09T17:51Z
TLE epoch observation values (Epoch: 2026-09-09T17:51:22.216Z)
Latitude
0.00001°
Longitude
156.86967°
Altitude
482.997 km
Speed
7.626 km/s
True Right ascension
03h 34m 00s
True Declination
0° 00' 00"
Sunlit
Object was in full shadow at epoch
Visualization orbit readout
Latitude
Unknown
Longitude
Unknown
Altitude
Unknown
Speed
Unknown
Apparent Right ascension
Unknown
Apparent Declination
Unknown
Sunlit
N/A
Visualization observer readout
Local Sidereal Time
17:44:06
Azimuth
Unknown
Elevation
Unknown
Doppler factor
Unknown
Orbital elements
Apogee altitude
485.7 km
Perigee altitude
484.225 km
Semi-major axis
6,863.1 km
Eccentricity
0.00011
Inclination
43.0004°
RAAN
53.5039°
Arg. of periapsis
253.9854°
True anomaly
106.09984°
Mean anomaly
106.088°
Eccentric anomaly
106.09392°
Mean motion
3.81736 °/min
Orbital period
94.31 mins
BSTAR
0.00079919
Loading maneuver chart data...
Computing Atmospheric mass density...
Loading historical data...
Loading historical data...
Loading historical data...
Loading historical data...
Loading historical data...
Loading historical data...
Loading historical data...

Documentation

Showing up to 5 results
|